Tracking 29493 objects as of 8-Sep-2024
HD Live streaming from Space Station
objects crossing your sky now

FENGYUN 1C DEB

Track FENGYUN 1C DEB now!
10-day predictions


NORAD ID: 32313
Int'l Code: 1999-025CXE
Perigee: 797.6 km
Apogee: 993.1 km
Inclination: 99.1 °
Period: 102.7 minutes
Semi major axis: 7266 km
RCS: 0.01 m2 (small)
Launch date: May 10, 1999
Source: People's Republic of China (PRC)
Launch site: Taiyaun Space Center, China (TSC)

Note: This is SATELLITE DEBRIS
Your satellite tracking list
Your tracking list is empty




NASA's NSSDC Master Catalog

Two Line Element Set (TLE):
1 32313U 99025CXE 24247.42685218  .00005962  00000-0  36634-2 0  9998
2 32313  99.0523 312.0176 0134558 281.0725  77.5334 14.01611837870368
Source of the keplerian elements: AFSPC